Oconto, WI

2:51 AM CDT on September 19, 2019 (GMT -0500)
Oconto Municipal

Weather History for KOCQ - June, 2019

Change the Weather History Date:

Saturday, June 1, 2019

  Actual Average Record
Temperature  
Mean Temperature 54 °F -  
Max Temperature 62 °F 70 °F 84 °F (2014)
Min Temperature 46 °F 49 °F 37 °F (2015)
Degree Days  
Heating Degree Days 11    
Growing Degree Days 4 (Base 50)    
Moisture  
Dew Point 46 °F    
Average Humidity 75    
Maximum Humidity 97    
Minimum Humidity 52    
Precipitation  
Precipitation 0.05 in - - ()
Sea Level Pressure  
Sea Level Pressure 29.81 in    
Wind  
Wind Speed 4 mph (ENE)    
Max Wind Speed 12 mph    
Max Gust Speed 18 mph    
Visibility 10 miles    
Events      
Averages and records for this station are not official NWS values.
T = Trace of Precipitation, MM = Missing Value Source: NWS Daily Summary

Daily Weather History Graph

Daily Weather History Graph

Search for Another Location

Airport or City:

Astronomy

Jun. 01, 2019 Rise Set
Actual Time 5:08 AM CDT 8:30 PM CDT
Civil Twilight 4:32 AM CDT 9:06 PM CDT
Nautical Twilight 3:45 AM CDT 9:54 PM CDT
Astronomical Twilight 2:46 AM CDT 10:54 PM CDT
Moon 4:21 AM CDT (6/1) 6:37 PM CDT (6/1)
Length of Visible Light 16h 34m
Length of Day
15h 21m
Waning Crescent, 4% of the Moon is Illuminated
Jun 1
Waning Crescent
Jun 3
New
Jun 10
First Quarter
Jun 17
Full
Jun 25
Last Quarter

Hourly Weather History & Observations

Time (CDT) Temp. Dew Point Humidity Pressure Visibility Wind Dir Wind Speed Gust Speed Precip Events Conditions
12:15 AM 52.9 °F 47.7 °F 82% 29.79 in 10.0 mi NE 3.5 mph - N/A   Clear
12:35 AM 53.1 °F 47.3 °F 81% 29.79 in 10.0 mi ENE 4.6 mph - N/A   Clear
12:55 AM 52.7 °F 47.1 °F 81% 29.80 in 10.0 mi North 3.5 mph - N/A   Clear
1:15 AM 52.3 °F 47.3 °F 83% 29.80 in 10.0 mi Calm Calm - N/A   Clear
1:35 AM 52.7 °F 47.7 °F 83% 29.80 in 10.0 mi NNW 3.5 mph - N/A   Scattered Clouds
1:55 AM 52.0 °F 48.4 °F 88% 29.80 in 10.0 mi East 4.6 mph - N/A   Scattered Clouds
2:15 AM 51.8 °F 48.0 °F 87% 29.78 in 10.0 mi NNE 6.9 mph - N/A   Mostly Cloudy
2:35 AM 51.6 °F 46.4 °F 82% 29.80 in 10.0 mi NNE 4.6 mph - N/A   Scattered Clouds
2:55 AM 50.9 °F 44.6 °F 79% 29.81 in 10.0 mi North 4.6 mph - N/A   Scattered Clouds
3:15 AM 50.2 °F 43.7 °F 78% 29.81 in 10.0 mi Calm Calm - N/A   Clear
3:35 AM 50.0 °F 43.2 °F 77% 29.81 in 10.0 mi North 3.5 mph - N/A   Clear
3:55 AM 50.0 °F 43.0 °F 77% 29.83 in 10.0 mi North 5.8 mph - N/A   Scattered Clouds
4:15 AM 49.5 °F 42.4 °F 77% 29.81 in 10.0 mi NNE 5.8 mph - N/A   Scattered Clouds
4:35 AM 49.5 °F 41.7 °F 75% 29.81 in 10.0 mi ENE 4.6 mph - N/A   Mostly Cloudy
4:55 AM 49.5 °F 41.2 °F 73% 29.79 in 10.0 mi Calm Calm - N/A   Scattered Clouds
5:15 AM 49.5 °F 42.8 °F 78% 29.80 in 10.0 mi Calm Calm - N/A   Mostly Cloudy
5:35 AM 48.6 °F 43.0 °F 81% 29.84 in 10.0 mi NNW 6.9 mph - 0.01 in   Overcast
5:55 AM 48.4 °F 42.8 °F 81% 29.87 in 10.0 mi NW 4.6 mph - 0.01 in   Overcast
6:15 AM 48.6 °F 43.5 °F 83% 29.87 in 10.0 mi West 5.8 mph - 0.01 in   Overcast
6:35 AM 47.7 °F 43.9 °F 87% 29.86 in 10.0 mi Calm Calm - 0.02 in   Overcast
6:55 AM 46.6 °F 44.6 °F 93% 29.76 in 10.0 mi ENE 8.1 mph - 0.04 in   Mostly Cloudy
7:15 AM 47.7 °F 44.6 °F 89% 29.73 in 10.0 mi ENE 9.2 mph - N/A   Scattered Clouds
7:35 AM 49.1 °F 45.1 °F 86% 29.79 in 10.0 mi North 6.9 mph - N/A   Scattered Clouds
7:55 AM 49.6 °F 44.2 °F 82% 29.81 in 10.0 mi North 4.6 mph - N/A   Clear
8:15 AM 50.4 °F 43.5 °F 77% 29.83 in 10.0 mi Calm Calm - N/A   Clear
8:35 AM 51.3 °F 43.7 °F 75% 29.84 in 10.0 mi Calm Calm - N/A   Clear
8:55 AM 52.0 °F 44.6 °F 76% 29.86 in 10.0 mi WNW 3.5 mph - N/A   Scattered Clouds
9:15 AM 52.7 °F 44.6 °F 74% 29.88 in 10.0 mi West 6.9 mph - N/A   Mostly Cloudy
9:35 AM 52.7 °F 44.8 °F 74% 29.88 in 10.0 mi West 5.8 mph - N/A   Overcast
9:55 AM 52.3 °F 45.3 °F 77% 29.87 in 10.0 mi Calm Calm - N/A   Overcast
10:15 AM 51.8 °F 45.9 °F 80% 29.83 in 10.0 mi Calm Calm - N/A   Overcast
10:35 AM 52.9 °F 47.8 °F 83% 29.81 in 10.0 mi East 5.8 mph - N/A   Mostly Cloudy
10:55 AM 54.0 °F 45.1 °F 72% 29.77 in 10.0 mi East 11.5 mph 18.4 mph N/A   Scattered Clouds
11:15 AM 55.4 °F 44.6 °F 67% 29.81 in 10.0 mi NE 8.1 mph - N/A   Scattered Clouds
11:35 AM 55.6 °F 43.7 °F 64% 29.81 in 10.0 mi ENE 9.2 mph - N/A   Mostly Cloudy
11:55 AM 57.4 °F 43.9 °F 61% 29.81 in 10.0 mi East 5.8 mph - N/A   Scattered Clouds
12:15 PM 57.0 °F 45.0 °F 64% 29.80 in 10.0 mi ESE 8.1 mph - N/A   Clear
12:35 PM 56.3 °F 45.9 °F 68% 29.81 in 10.0 mi ESE 4.6 mph - N/A   Clear
12:55 PM 58.1 °F 46.0 °F 64% 29.81 in 10.0 mi ENE 3.5 mph - N/A   Clear
1:15 PM 59.7 °F 46.4 °F 61% 29.82 in 10.0 mi East 5.8 mph - N/A   Scattered Clouds
1:35 PM 60.1 °F 44.4 °F 56% 29.82 in 10.0 mi East 3.5 mph - N/A   Clear
1:55 PM 60.3 °F 44.1 °F 55% 29.82 in 10.0 mi Calm Calm - N/A   Clear
2:15 PM 57.9 °F 45.5 °F 63% 29.83 in 10.0 mi ESE 6.9 mph - N/A   Scattered Clouds
2:35 PM 58.1 °F 43.7 °F 59% 29.83 in 10.0 mi ESE 5.8 mph - N/A   Mostly Cloudy
2:55 PM 59.0 °F 45.0 °F 60% 29.82 in 10.0 mi East 4.6 mph - N/A   Overcast
3:15 PM 59.5 °F 43.5 °F 55% 29.82 in 10.0 mi ENE 4.6 mph - N/A   Overcast
3:35 PM 59.9 °F 44.2 °F 56% 29.81 in 10.0 mi Calm Calm - N/A   Overcast
3:55 PM 59.2 °F 46.4 °F 63% 29.81 in 10.0 mi SE 3.5 mph - N/A   Overcast
4:15 PM 59.9 °F 46.2 °F 61% 29.80 in 10.0 mi SE 5.8 mph - N/A   Overcast
4:35 PM 61.5 °F 45.7 °F 56% 29.79 in 10.0 mi SE 4.6 mph - N/A   Overcast
4:55 PM 61.7 °F 43.7 °F 52% 29.78 in 10.0 mi Calm Calm - N/A   Scattered Clouds
5:15 PM 61.7 °F 44.2 °F 53% 29.78 in 10.0 mi Calm Calm - N/A   Clear
5:35 PM 62.1 °F 45.3 °F 54% 29.78 in 10.0 mi SE 3.5 mph - N/A   Clear
5:55 PM 61.9 °F 46.9 °F 58% 29.78 in 10.0 mi SE 4.6 mph - N/A   Clear
6:15 PM 61.3 °F 45.9 °F 57% 29.78 in 10.0 mi ESE 4.6 mph - N/A   Clear
6:35 PM 60.1 °F 45.9 °F 59% 29.78 in 10.0 mi SSE 4.6 mph - N/A   Clear
6:55 PM 59.5 °F 46.2 °F 61% 29.78 in 10.0 mi SSE 3.5 mph - N/A   Clear
7:15 PM 59.0 °F 47.3 °F 65% 29.78 in 10.0 mi Calm Calm - N/A   Clear
7:35 PM 58.1 °F 47.8 °F 69% 29.78 in 10.0 mi Calm Calm - N/A   Clear
7:55 PM 57.2 °F 47.3 °F 69% 29.79 in 10.0 mi Calm Calm - N/A   Clear
8:15 PM 55.0 °F 49.1 °F 80% 29.79 in 10.0 mi Calm Calm - N/A   Clear
8:35 PM 53.6 °F 48.6 °F 83% 29.79 in 10.0 mi Calm Calm - N/A   Clear
8:55 PM 52.0 °F 47.7 °F 85% 29.79 in 10.0 mi Calm Calm - N/A   Mostly Cloudy
9:15 PM 52.2 °F 48.9 °F 89% 29.80 in 10.0 mi Calm Calm - N/A   Overcast
9:35 PM 52.7 °F 50.0 °F 91% 29.81 in 10.0 mi Calm Calm - N/A   Overcast
9:55 PM 53.2 °F 49.6 °F 88% 29.81 in 10.0 mi Calm Calm - N/A   Overcast
10:15 PM 50.9 °F 48.9 °F 93% 29.82 in 10.0 mi Calm Calm - N/A   Scattered Clouds
10:35 PM 49.8 °F 48.2 °F 94% 29.82 in 10.0 mi Calm Calm - N/A   Scattered Clouds
10:55 PM 50.0 °F 48.4 °F 94% 29.82 in 10.0 mi Calm Calm - N/A   Mostly Cloudy
11:15 PM 49.8 °F 49.1 °F 97% 29.83 in 10.0 mi Calm Calm - N/A   Overcast
11:35 PM 50.5 °F 49.5 °F 96% 29.83 in 10.0 mi Calm Calm - N/A   Overcast
11:55 PM 50.7 °F 49.5 °F 95% 29.83 in 10.0 mi ENE 5.8 mph - N/A   Overcast